Content
SEND FEEDBACK

Daily
Averages
Monthly
Summary
United States of America

BELTON, MISSOURI


Home > North America > United States > Missouri
Elevation: 1089 feet     Latitude: 38 51N     Longitude: 094 33W

WEATHER
 
SELECT A DAY
Number of Records: 194,560;   Date Range: 1/1/95 - 7/20/14
 
SHARE

PRINT THIS DATA

[ ← Previous Day ]
WEATHER ALMANAC - JANUARY 9, 2013
[ Next Day → ]
[ °C ]   °F
Weather ElementAverageHighLow
Temperature42.2 °F53.1 °F (2:53 pm)33.1 °F (4:53 am)
Dewpoint29.6 °F32 °F (10:53 am)26.1 °F (11:53 pm)
Humidity62.4 %79 % (2:53 am)43 % (2:53 pm)
Barometer30.36 in30.43 in (9:53 am)30.23 in (1:53 am)
Wind Speed4.5 mph10.4 mph (9:53 pm)
Weather ElementAverage
Visibility10 mi
Wind DirectionSE (130.4 °)

Weather ElementTotal
Precipitation---
Heating Degree Days21.9 (Base 65)
Averaged from 23 records on January 9, 2013
WEATHER CONDITIONS BREAKOUT
WIND DIRECTION BREAKOUT
WEATHER BY HOUR - JANUARY 9, 2013
[ °C ]   °F
Local TimeTemperatureDewpointHumidityBarometerVisibilityWind DirectionWind SpeedGust SpeedPrecipitationEventsConditions
1:53 AM35.1 °F28.0 °F76 %30.23 in10.0 miWNW (290°)3.5 mphClear
2:53 AM34.0 °F28.0 °F79 %30.27 in10.0 miWest (280°)4.6 mphClear
3:53 AM34.0 °F28.0 °F79 %30.27 in10.0 miCalmClear
4:53 AM33.1 °F27.0 °F78 %30.29 in10.0 miNW (320°)8.1 mphClear
5:53 AM34.0 °F28.0 °F79 %30.29 in10.0 miNNW (340°)8.1 mphClear
6:53 AM34.0 °F28.0 °F79 %30.32 in10.0 miNorth (350°)8.1 mphClear
7:53 AM35.1 °F27.0 °F72 %30.37 in10.0 miNorth (350°)3.5 mphClear
8:53 AM36.0 °F28.9 °F76 %30.40 in10.0 miCalmClear
9:53 AM39.9 °F30.9 °F70 %30.43 in10.0 miSouth (170°)5.8 mphClear
10:53 AM44.1 °F32.0 °F63 %30.41 in10.0 miCalmClear
11:53 AM46.9 °F32.0 °F56 %30.41 in10.0 miCalmClear
12:53 PM50.0 °F32.0 °F50 %30.38 in10.0 miCalmClear
1:53 PM51.1 °F30.9 °F46 %30.37 in10.0 miVariable3.5 mphClear
2:53 PM53.1 °F30.9 °F43 %30.37 in10.0 miCalmClear
3:53 PM52.0 °F30.9 °F45 %30.39 in10.0 miESE (120°)4.6 mphClear
4:53 PM50.0 °F32.0 °F50 %30.39 in10.0 miSE (130°)3.5 mphClear
5:53 PM46.9 °F32.0 °F56 %30.39 in10.0 miESE (110°)4.6 mphClear
6:53 PM45.0 °F30.9 °F58 %30.39 in10.0 miEast (80°)5.8 mphClear
7:53 PM43.0 °F30.0 °F60 %30.39 in10.0 miENE (70°)5.8 mphClear
8:53 PM44.1 °F28.9 °F55 %30.39 in10.0 miEast (100°)8.1 mphClear
9:53 PM44.1 °F30.0 °F58 %30.38 in10.0 miESE (110°)10.4 mphClear
10:53 PM42.1 °F28.0 °F58 %30.35 in10.0 miEast (80°)8.1 mphClear
11:53 PM44.1 °F26.1 °F49 %30.33 in10.0 miEast (100°)8.1 mphClear
Hourly data recorded from KOJC, located miles away from Belton, Missouri







STORIES FROM OUR PARTNERS